Location: ???????
(55.3754°N, 39.3545°E)
Time: 20:46:16
(UTC+00:00)

USA 234 - Pass Details

Date: 14 April 2026
Orbit: 1102 x 1106 km, 123.0° (Epoch: 4 January)

Event Time Altitude Azimuth Distance (km) Brightness Sun altitude
Rises 17:11:08 0° 63° (ENE) 3,929 5.8 -6.8°
Reaches altitude 10° 17:13:44 10° 69° (ENE) 2,969 5.2 -7.1°
Maximum altitude 17:20:05 50° 143° (SE) 1,382 3.5 -7.9°
Drops below altitude 10° 17:26:24 10° 218° (SW) 2,960 5.6 -8.7°
Sets 17:28:59 0° 224° (SW) 3,916 6.3 -9.0°
